Regional Weather Roundup
Issued by NWS

Home | Current Version | Previous Version | Text Only | Print | Product List | Glossary On
Versions: 1 2 3 4 5 6 7 8 9 10 11 12 13 14 15 16 17 18 19 20 21 22 23 24 25 26 27 28 29 30 31 32 33 34 35 36 37 38 39 40 41 42 43 44 45 46 47 48 49 50
000
ASUS46 KLOX 311512
RWRCA

SOUTHERN CALIFORNIA WEATHER ROUNDUP
NATIONAL WEATHER SERVICE OXNARD CALIFORNIA
700 AM PST SAT JAN 31 2015

NOTE: "FAIR" INDICATES FEW OR NO CLOUDS BELOW 12,000 FEET WITH NO
SIGNIFICANT WEATHER AND/OR OBSTRUCTIONS TO VISIBILITY.

  -  STATIONS PRECEEDED BY AN ASTERISK (*) ARE NOT NWS OR FAA
     STATIONS AND ARE NOT SUBJECT TO NWS AND FAA QUALITY CONTROL.

CAZ041-042-087-311600-
LA AND ORANGE COUNTY COASTAL AREAS


CITY           SKY/WX    TMP DP  RH WIND       PRES   REMARKS
L.A. DOWNTOWN  MOCLDY    58  54  86 CALM      29.87R
L.A. AIRPORT   PTCLDY    55  54  96 CALM      29.87R FOG
LONG BEACH     CLOUDY    56  54  93 CALM      29.87R

CITY           SKY/WX    TMP DP  RH WIND       PRES   REMARKS
AVALON           N/A     52 N/A N/A S2          N/A
FULLERTON      CLOUDY    58  52  80 E3        29.87R
HAWTHORNE      PTCLDY    58  55  90 CALM      29.87R
*LEO CARRILLO    N/A     54  48  80 N8          N/A
*LOS ALAMITOS  CLOUDY    56  53  89 NE2       29.87R
*REDONDO BEACH   N/A     54  51  90 CALM      29.88R
SANTA ANA      CLOUDY    59  51  75 NE5       29.87R
STA MONICA APT MOCLDY    57  54  89 CALM      29.87R
TORRANCE       PTCLDY    54  54 100 CALM      29.88
*UCLA            N/A     55  52  88 N3        29.85R

$$

CAZ547-548-048-311600-
LA COUNTY VALLEYS AND INLAND EMPIRE


CITY           SKY/WX    TMP DP  RH WIND       PRES   REMARKS
BURBANK        CLOUDY    54  51  90 CALM      29.87R
VAN NUYS       CLEAR     52  50  93 CALM      29.87R

CITY           SKY/WX    TMP DP  RH WIND       PRES   REMARKS
CORONA AIRPORT MOSUNNY   48  48 100 CALM      29.89R FOG
CHINO          PTCLDY    51  49  92 CALM      29.89R
*CLAREMONT       N/A     51  51  98 CALM        N/A
MARCH AFB      MOCLDY    47  47 100 CALM      29.87R FOG
*NORTHRIDGE      N/A     52  48  87 CALM        N/A
ONTARIO        PTCLDY    52  49  89 CALM      29.87R
*PASADENA        N/A     57  55  94 CALM        N/A
POMONA         PTCLDY    52  50  93 CALM      29.90
RIVERSIDE      CLEAR     51  49  92 CALM      29.88R
SAN BERNARDINO PTCLDY    48  45  87 CALM      29.87
*SAN RAFAEL HI   N/A     51  51 100 CALM        N/A
*SAUGUS          N/A     49  45  85 CALM        N/A
*WHITEMAN AP   NOT AVBL
*WHITTIER HILL   N/A     53  53 100 SE3         N/A
*WOODLAND HILL   N/A     50  46  87 S1          N/A

$$

CAZ054-055-311600-
LA AND SAN BERNARDINO COUNTY MOUNTAINS


CITY           SKY/WX    TMP DP  RH WIND       PRES   REMARKS
*ACTON           N/A     50  40  69 N8          N/A
*BIG BEAR AIRP LGT RAIN  34  32  93 NE3       29.92R
*BIG PINES       N/A     34  33  98 CALM        N/A
*CHILAO          N/A     42  31  66 N24G38      N/A  WCI  32
MT WILSON NWS    N/A     37  30  75 MISG        N/A
SANDBERG       CLEAR     45  33  63 E17G23    29.92R
*WARM SPRINGS    N/A     46  33  60 NE17        N/A

$$

CAZ028-029-059-060-099-311600-
ANTELOPE VALLEY AND SURROUNDING AREAS


CITY           SKY/WX    TMP DP  RH WIND       PRES   REMARKS
LANCASTER      CLEAR     40  37  89 NW6       29.92R
PALMDALE       CLEAR     43  39  86 CALM      29.92R
*POPPY PARK      N/A     41  38  88 NW6         N/A

CITY           SKY/WX    TMP DP  RH WIND       PRES   REMARKS
29 PALMS       CLOUDY    51  45  79 NW7       29.95R
BARSTOW/DAGGET CLOUDY    53  44  71 CALM      29.91R
BISHOP         CLOUDY    45  30  55 N15       30.05R
CHINA LAKE     MOCLDY    47  42  83 S5        29.92R
EDWARDS AFB    PTCLDY    42  42 100 NE2       29.90R
MOJAVE         FAIR      45  37  76 N7        29.92R
NEEDLES        CLOUDY    55  48  77 N5        29.86R
VICTORVILLE    CLOUDY    43  39  87 CALM      29.92R

$$

CAZ039-040-311600-
VENTURA AND SANTA BARBARA COUNTY COAST


CITY           SKY/WX    TMP DP  RH WIND       PRES   REMARKS
CAMARILLO      CLEAR     46  43  89 CALM      29.87R
NWS OXNARD       N/A     48  45  90 CALM      29.87R
OXNARD AIRPORT CLEAR     52  46  80 NE8       29.87R
*POINT MUGU    PTCLDY    51  47  86 N6        29.88R
SBA APT/GOLETA CLOUDY    50  49  96 CALM      29.87R
*SANTA BARBARA   N/A     54  50  85 CALM      29.95R
*VENTURA         N/A     49  45  85 N3        29.90S

$$

CAZ044-045-311600-
VENTURA COUNTY VALLEYS


CITY           SKY/WX    TMP DP  RH WIND       PRES   REMARKS
*SIMI VALLEY     N/A     46  45  94 CALM      29.87R
*OJAI            N/A     40  38  93 CALM      29.85R
*FILLMORE        N/A     43  41  91 CALM      29.79R

$$

CAZ053-311600-
VENTURA COUNTY MOUNTAINS


CITY           SKY/WX    TMP DP  RH WIND       PRES   REMARKS
*LOCKWOOD VLY    N/A     27  27 100 MISG        N/A
*ROSE VALLEY     N/A     28  30 100 MISG        N/A

$$

CAZ034-035-036-311600-
CENTRAL COAST AND SANTA YNEZ VALLEY


CITY           SKY/WX    TMP DP  RH WIND       PRES   REMARKS
SAN LUIS OBISP CLOUDY    48  47  96 E3        29.90R
SANTA MARIA    FOG       53  50  89 NE5       29.90R VSB 1/4

CITY           SKY/WX    TMP DP  RH WIND       PRES   REMARKS
*CAL POLY SLO    N/A     46  46 100 NE2G8       N/A
*LOMPOC        CLOUDY    54  46  76 E3        29.90R
*PISMO BEACH     N/A     50  50  97 NE5       29.91R
*SANTA YNEZ    CLOUDY    50  46  87 CALM      29.90R

$$

CAZ037-038-051-311600-
SAN LUIS OBISPO COUNTY INTERIOR AND CUYAMA VALLEY


CITY           SKY/WX    TMP DP  RH WIND       PRES   REMARKS
*CUYAMA          N/A     40  37  90 CALM      29.90R
PASO ROBLES    FOG       43  41  93 NE6       29.93R VSB 1/4

$$

CAZ032-033-061-311600-
SOUTHERN DESERTS


CITY           SKY/WX    TMP DP  RH WIND       PRES   REMARKS
BLYTHE         MOCLDY    54  50  86 CALM      29.84R
IMPERIAL       CLOUDY    51  47  86 W3        29.83R
PALM SPRINGS   MOCLDY    59  48  67 CALM      29.86R
THERMAL        MOCLDY    52  49  89 CALM      29.82R

$$

ELSEWHERE ACROSS THE WESTERN UNITED STATES AND MEXICO


CITY           SKY/WX    TMP DP  RH WIND       PRES   REMARKS
DENVER, CO     MOCLDY    31  26  82 SW5       29.91R WCI  26
GRAND CANYON,  MOCLDY    36  35  96 CALM      29.91R
HONOLULU, HI   PTCLDY    64  63  94 N5        29.98R
KAHULUI, MAUI  PTCLDY    66  63  88 SE7       29.98S
LAKE TAHOE, CA PTCLDY    30  19  63 CALM      30.11R
LAS VEGAS, NV  CLOUDY    50  46  86 S8        29.86R
MAMMOTH LAKES, CLOUDY    32  27  80 W8        30.10S WCI  25
MEXICO CITY, M SUNNY     50  37  62 SE3       30.30S
PHOENIX, AZ    CLOUDY    55  53  93 CALM      29.80R
PORTLAND, OR   FOG       33  33 100 NW6       30.24S VSB 1/4 WCI  28
RENO, NV       PTCLDY    24  22  91 S3        30.17S
SALT LAKE CITY MOCLDY    35  29  78 NW8       30.01R WCI  29
SAN DIEGO, CA  MOCLDY    60  53  77 CALM      29.89R
SAN FRANCISCO, PTCLDY    60  31  33 VRB3      29.95R
SAN JOSE, CA   PTCLDY    48  38  68 CALM      29.94R
SEATTLE, WA    FOG       39  37  92 N8        30.24S VSB 1/8 WCI  33
TIJUANA, MEX   CLOUDY    54  50  87 SE3       29.90R

$$

STATION/POSITION TIME  TEMP    WIND        PRES    VSBY  WAVE
                       AIR SEA DIR/SP/G                  HT/PER
                 (UTC) (F)     (DEG/KT/KT) (MB)    (MI)  (FT/S)
POINT ARGUELLO B NOT AVBL
WEST SANTA BARBA 1500   58 60  340/ 16/ 19 1010.9R         7/16
POINT CONCEPTION NOT AVBL
EAST SANTA BARBA NOT AVBL
SANTA MONICA BAY 1500   60 62  120/  2/  4 1011.5R         4/16



USA.gov is the U.S. government's official web portal to all federal, state and local government web resources and services.